Regional Weather Roundup
Issued by NWS Goodland, KS

Home | Current Version | Previous Version | Text Only | Print | Product List | Glossary On
Versions: 1 2 3 4 5 6 7 8 9 10 11 12 13 14 15 16 17 18 19 20 21 22 23 24 25 26 27 28 29 30 31 32 33 34 35 36 37 38 39 40 41 42 43 44 45 46 47 48 49 50
000
ASUS43 KGLD 250008
RWRGLD

GOODLAND FORECAST AREA HOURLY WEATHER ROUNDUP
NATIONAL WEATHER SERVICE GOODLAND KS
500 PM MST SAT FEB 24 2018

...OFFICIAL OBSERVATIONS...

CITY           SKY/WX    TMP DP  RH WIND       PRES   REMARKS
GOODLAND KS    CLEAR     37  10  32 N18       29.80R
HILL CITY KS   CLEAR     41  11  29 NW14G28   29.81R
IMPERIAL NEB   CLEAR     33  13  43 NW20G30   29.80R
MCCOOK NEB     CLEAR     36  19  50 NW18G26   29.80R
AKRON CO       CLEAR     31   6  35 NW24G33   29.77R WCI  17
BURLINGTON CO  CLEAR     36  12  37 N14       29.79R
LIMON CO       CLEAR     33   0  24 N14       29.75R
$$

...UNOFFICIAL OBSERVATIONS...

CITY           SKY/WX    TMP DP  RH WIND       PRES   REMARKS
COLBY KS       CLEAR     37  14  38 NW18G24   29.83R
NORTON KS      CLEAR     36   9  32 NW17      29.80
SHARON SPRINGS   N/A     38   7  27 N6G16       N/A
KIT CARSON CO    N/A     40  10  28 MISG        N/A
$$



USA.gov is the U.S. government's official web portal to all federal, state and local government web resources and services.